Location: Blanton
(30.8302°N, 83.1188°W)
Time: 18:19:35
(UTC+00:00)

X-37B - Pass Details

Date: 06 December 2021
Orbit: 334 x 337 km, 45.0° (Epoch: 11 January)

Event Time Altitude Azimuth Distance (km) Brightness Sun altitude
Rises 00:10:57 0° 264° (W) 2,094 5.8 -21.1°
Reaches altitude 10° 00:13:16 10° 282° (WNW) 1,260 4.1 -21.6°
Enters shadow 00:14:52 19° 315° (NW) 889 2.7 -21.9°
